Weather History for Srmellk International Air, Hungary

Change the Weather History Date:

Sunday, January 12, 2014

  Actual Average Record
Temperature  
Mean Temperature 41 °F -  
Max Temperature 49 °F - - ()
Min Temperature 33 °F - - ()
Degree Days  
Heating Degree Days 24    
Moisture  
Dew Point 34 °F    
Average Humidity 76    
Maximum Humidity 100    
Minimum Humidity 33    
Precipitation  
Precipitation 0.00 in - - ()
Sea Level Pressure  
Sea Level Pressure 30.22 in    
Wind  
Wind Speed 3 mph ()    
Max Wind Speed 10 mph    
Max Gust Speed -    
Visibility 3.0 miles    
Events Fog    
T = Trace of Precipitation, MM = Missing Value Source: Averaged Metar Reports

Daily Weather History Graph

Daily Weather History Graph

Search for Another Location

Airport:

Trip Planner

Search our weather history database for the weather conditions in past years. The results will help you decide how hot, cold, wet, or windy it might be!

Date:

Astronomy

Jan. 12, 2014 Rise Set
Actual Time 7:33 AM CET 4:26 PM CET
Civil Twilight 6:59 AM CET 5:00 PM CET
Nautical Twilight 6:21 AM CET 5:38 PM CET
Astronomical Twilight 5:44 AM CET 6:14 PM CET
Moon 1:42 PM CET (1/12) 4:14 AM CET (1/12)
Length of Visible Light 10h 01m
Length of Day
8h 52m
Waxing Gibbous, 88% of the Moon is Illuminated
Jan 12
Waxing Gibbous
Jan 16
Full
Jan 24
Last Quarter
Jan 30
New
Feb 6
First Quarter

Hourly Weather History & Observations

Time (CET) Temp. Windchill Dew Point Humidity Pressure Visibility Wind Dir Wind Speed Gust Speed Precip Events Conditions
12:00 AM 40 °F - 40 °F 100% 30.10 in - West 4.5 mph - -  
1:00 AM 41 °F - 40 °F 97% 30.12 in - NW 4.5 mph - -  
2:00 AM 41 °F - 41 °F 98% 30.13 in - NW 2.2 mph - -  
3:00 AM 40 °F - 40 °F 100% 30.15 in - NW 2.2 mph - -  
4:00 AM 40 °F - 40 °F 100% 30.17 in - NNW 2.2 mph - -  
5:00 AM 39 °F - 39 °F 98% 30.18 in - NNE 2.2 mph - -  
5:15 AM 39.2 °F - 39.2 °F 100% 30.15 in 0.1 mi SSW 2.3 mph - N/A Fog Fog
5:45 AM 39.2 °F 37.0 °F 37.4 °F 93% 30.18 in 0.1 mi West 3.5 mph - N/A Fog Fog
6:00 AM 38 °F - 38 °F 100% 30.19 in 0 mi West 4.5 mph - - Fog Heavy Fog
6:00 AM - - - N/A% - 0.5 mi Variable 3.5 mph - N/A Fog Fog
6:15 AM 37.4 °F 34.9 °F 35.6 °F 93% 30.18 in 0.1 mi WSW 3.5 mph - N/A Fog Fog
6:45 AM 35.6 °F - 35.6 °F 100% 30.21 in 0.1 mi Calm Calm - N/A Fog Fog
7:00 AM 35 °F - 35 °F 98% 30.22 in 0 mi Calm Calm - - Fog Partial Fog
7:15 AM 33.8 °F 30.8 °F 33.8 °F 100% 30.21 in 0.1 mi SSW 3.5 mph - N/A Fog Fog
7:45 AM 33.8 °F - 33.8 °F 100% 30.21 in 0.1 mi South 2.3 mph - N/A Fog Fog
8:00 AM 34 °F - 33 °F 97% 30.24 in 0 mi South 2.2 mph - - Fog Partial Fog
8:15 AM 33.8 °F - 33.8 °F 100% 30.24 in 0.1 mi SW 2.3 mph - N/A Fog Fog
8:45 AM 33.8 °F - 32.0 °F 93% 30.24 in 0.1 mi Calm Calm - N/A Fog Fog
9:00 AM 33 °F - 33 °F 98% 30.26 in 0 mi Calm Calm - - Fog Partial Fog
9:00 AM - - - N/A% - 6.2 mi Variable 3.5 mph - N/A   Clear
9:15 AM 33.8 °F - 33.8 °F 100% 30.24 in 0.5 mi SW 1.2 mph - N/A Fog Fog
9:45 AM 37.4 °F - 35.6 °F 93% 30.24 in 1.9 mi West 2.3 mph - N/A   Partly Cloudy
10:00 AM 36 °F - 36 °F 100% 30.27 in 2 mi West 2.2 mph - - Fog Light Fog
10:15 AM 39.2 °F - 39.2 °F 100% 30.27 in 6.2 mi SSW 2.3 mph - N/A   Partly Cloudy
10:45 AM 41.0 °F - 41.0 °F 100% 30.27 in 6.2 mi South 2.3 mph - N/A   Partly Cloudy
11:00 AM 42 °F - 41 °F 97% 30.27 in 25 mi South 2.2 mph - -   Partly Cloudy
11:15 AM 44.6 °F 43.1 °F 39.2 °F 81% 30.24 in 6.2 mi North 3.5 mph - N/A   Partly Cloudy
11:45 AM 46.4 °F 41.9 °F 32.0 °F 57% 30.24 in 6.2 mi North 9.2 mph - N/A   Partly Cloudy
12:00 PM 46 °F - 32 °F 46% 30.26 in 25 mi North 8.9 mph - -   Partly Cloudy
12:00 PM - - - N/A% - 6.2 mi North 6.9 mph - N/A   Partly Cloudy
12:15 PM 48.2 °F - 32.0 °F 54% 30.24 in 6.2 mi North 6.9 mph - N/A   Partly Cloudy
12:45 PM 48.2 °F - 30.2 °F 50% 30.24 in 6.2 mi North 8.1 mph - N/A   Partly Cloudy
1:00 PM 48 °F - 30 °F 37% 30.25 in 31 mi North 6.7 mph - -   Partly Cloudy
1:15 PM 50.0 °F - 30.2 °F 47% 30.24 in 6.2 mi NNW 10.4 mph - N/A   Partly Cloudy
1:45 PM 48.2 °F - 30.2 °F 50% 30.21 in 6.2 mi NNW 8.1 mph - N/A   Partly Cloudy
2:00 PM 48 °F - 30 °F 38% 30.23 in 31 mi NNW 8.9 mph - -   Partly Cloudy
2:15 PM 50.0 °F - 30.2 °F 47% 30.21 in 6.2 mi NNW 5.8 mph - N/A   Partly Cloudy
2:45 PM 48.2 °F - 28.4 °F 46% 30.21 in 6.2 mi NNW 5.8 mph - N/A   Partly Cloudy
3:00 PM 49 °F - 29 °F 33% 30.23 in 31 mi NNW 6.7 mph - -   Partly Cloudy
3:15 PM 50.0 °F - 30.2 °F 47% 30.21 in 6.2 mi NNW 4.6 mph - N/A   Partly Cloudy
3:45 PM 48.2 °F - 30.2 °F 50% 30.21 in - NNW 2.3 mph - N/A   Clear
4:00 PM 48 °F - 29 °F 36% 30.23 in 31 mi NNW 2.2 mph - -   Partly Cloudy
4:15 PM 46.4 °F - 30.2 °F 53% 30.21 in - North 2.3 mph - N/A   Clear
4:45 PM 44.6 °F - 28.4 °F 53% 30.21 in - NNE 2.3 mph - N/A   Clear
5:00 PM 44 °F - 28 °F 40% 30.23 in 31 mi NNE 2.2 mph - -   Partly Cloudy
5:00 PM - - - N/A% - - North - - N/A   Unknown
6:00 PM 41 °F - 28 °F 48% 30.25 in - NE 2.2 mph - -  
7:00 PM 37 °F - 29 °F 65% 30.25 in - NW 2.2 mph - -  
8:00 PM 36 °F - 31 °F 76% 30.25 in - WSW 2.2 mph - -  
9:00 PM 36 °F - 32 °F 79% 30.24 in - WNW 4.5 mph - -  
10:00 PM 37 °F - 33 °F 79% 30.24 in - WNW 2.2 mph - -  
11:00 PM 37 °F - 32 °F 75% 30.23 in - West 2.2 mph - -